OPS 4682 DEB, 38407

Orbit data source: Space-Track

OPS 4682 DEB, 38407 is space debris in LEO originally from a launch on Sat, 03 Apr 1965 UTC launched from the Air Force Western Test Range (AFWTR). Debris objects in space refer to the collection of defunct objects orbiting the Earth. Examples of debris include non-operational satellites, rocket bodies, and fragments generated from explosions, collisions, or faulty payload assembly.

Loading next visibility...
Identifier
38407, 1965-027DL
Orbit
LEO
Country
Flag of USUS
Related business
Manufacturer
Unknown
Mission
Spacecraft
Bus & Motor
Unknown
Mass
Unknown
Launch date (UTC)
1965-04-03 (61 years ago)
Launch vehicle
Unknown
Launch site
Air Force Western Test Range (AFWTR)
Object type
Payload
Rocket body
Debris
Shape & HBR
Unknown shape, 0.1 m
Radar Cross Section
Medium (>0.1 m² and <1 m²)

Expand to show TLE details & history
Last TLE update: 2 days ago

TLE from 2 days ago
0 OPS 4682 DEB
1 38407U 65027DL  26207.16250770  .00000035  00000-0  93971-4 0  9998
2 38407  90.2424   8.2922 0029816  32.4064 327.8880 12.96953037306328
Epoch: 2026-07-26T03:54Z
TLE epoch observation values (Epoch: 2026-07-26T03:54:00.665Z)
Latitude
0.00001°
Longitude
5.92504°
Altitude
1,257.618 km
Speed
7.236 km/s
True Right ascension
00h 33m 10s
True Declination
0° 00' 00"
Sunlit
Object was in daylight at epoch
Visualization orbit readout
Latitude
Unknown
Longitude
Unknown
Altitude
Unknown
Speed
Unknown
Apparent Right ascension
Unknown
Apparent Declination
Unknown
Sunlit
N/A
Visualization observer readout
Local Sidereal Time
13:07:08
Azimuth
Unknown
Elevation
Unknown
Doppler factor
Unknown
Orbital elements
Apogee altitude
1,293.987 km
Perigee altitude
1,248.372 km
Semi-major axis
7,649.317 km
Eccentricity
0.00298
Inclination
90.2424°
RAAN
8.2922°
Arg. of periapsis
32.4064°
True anomaly
327.7058°
Mean anomaly
327.888°
Eccentric anomaly
327.79696°
Mean motion
3.24421 °/min
Orbital period
110.97 mins
BSTAR
0.000093971
Loading maneuver chart data...
Computing Atmospheric mass density...
Loading historical data...
Loading historical data...
Loading historical data...
Loading historical data...
Loading historical data...
Loading historical data...
Loading historical data...

Documentation

Showing up to 5 results
|